Location: City of Moscow
(46.7306°N, 116.9989°W)
Time: 21:24:51
(UTC+00:00)

Cosmos 2219 Rocket - Pass Details

Date: 11 December 2025
Orbit: 827 x 845 km, 71.0° (Epoch: 12 January)

Event Time Altitude Azimuth Distance (km) Brightness Sun altitude
Exits shadow 14:19:48 - 327° (NNW) 2,683 4.3 -10.4°
Reaches altitude 10° 14:20:23 10° 326° (NW) 2,469 4.1 -10.3°
Maximum altitude 14:25:53 55° 250° (WSW) 1,007 2.4 -9.4°
Drops below altitude 10° 14:31:19 10° 174° (S) 2,440 5.0 -8.6°
Sets 14:33:47 0° 170° (S) 3,367 5.9 -8.2°
